This is the latest recevied weather packets stored in our database for station/object WA6ODQ-13. If no packets are shown the sender has not sent any weather packets the latest 10 day(s).
| Time | Temp. | Humidity | Pressure | Rain* | Wind** | Luminosity | Snow |
|---|---|---|---|---|---|---|---|
| 1777595876 | 28.33° C | 48% | 1009 hPa | 0 mm | - | 240 W/m² | - |
| 1777595576 | 28.33° C | 47% | 1008.9 hPa | 0 mm | - | 254 W/m² | - |
| 1777595272 | 28.33° C | 47% | 1009 hPa | 0 mm | - | 267 W/m² | - |
| 1777594968 | 28.33° C | 47% | 1009.1 hPa | 0 mm | - | 281 W/m² | - |
| 1777594665 | 28.33° C | 47% | 1008.9 hPa | 0 mm | - | 295 W/m² | - |
| 1777594362 | 28.33° C | 46% | 1009.1 hPa | 0 mm | - | 309 W/m² | - |
| 1777594058 | 28.33° C | 46% | 1009.1 hPa | 0 mm | - | 323 W/m² | - |
| 1777593753 | 28.89° C | 46% | 1009 hPa | 0 mm | - | 337 W/m² | - |
| 1777593450 | 28.33° C | 47% | 1009.2 hPa | 0 mm | - | 350 W/m² | - |
| 1777593148 | 28.33° C | 46% | 1009.2 hPa | 0 mm | - | 364 W/m² | - |
| 1777592847 | 28.33° C | 47% | 1009.5 hPa | 0 mm | - | 379 W/m² | - |
| 1777592545 | 28.33° C | 47% | 1009.4 hPa | 0 mm | - | 391 W/m² | - |
| 1777592240 | 28.89° C | 46% | 1009.4 hPa | 0 mm | - | 406 W/m² | - |
| 1777591937 | 28.89° C | 46% | 1009.5 hPa | 0 mm | - | 417 W/m² | - |
| 1777591632 | 29.44° C | 44% | 1009.4 hPa | 0 mm | - | 430 W/m² | - |
| 1777591329 | 29.44° C | 45% | 1009.7 hPa | 0 mm | - | 444 W/m² | - |
| 1777591025 | 28.33° C | 46% | 1009.7 hPa | 0 mm | - | 457 W/m² | - |
| 1777590720 | 28.89° C | 45% | 1009.6 hPa | 0 mm | - | 469 W/m² | - |
| 1777590416 | 28.33° C | 45% | 1009.8 hPa | 0 mm | - | 484 W/m² | - |
| 1777590114 | 28.89° C | 45% | 1009.8 hPa | 0 mm | - | 496 W/m² | - |
| 1777589810 | 28.33° C | 45% | 1009.8 hPa | 0 mm | - | 508 W/m² | - |
| 1777589510 | 28.89° C | 45% | 1010 hPa | 0 mm | - | 521 W/m² | - |
| 1777589209 | 28.33° C | 47% | 1009.9 hPa | 0 mm | - | 532 W/m² | - |
| 1777588906 | 28.33° C | 46% | 1010.2 hPa | 0 mm | - | 544 W/m² | - |
| 1777588602 | 28.33° C | 46% | 1010.1 hPa | 0 mm | - | 554 W/m² | - |
* Rain latest hour (hover to see other rain measurements)
** Current wind speed in m/s (hover to see current wind gust speed)